This demonstration page uses our WeatherBlox Daily Observations layout. Learn more.

Left ArrowRight Arrow

40.92945, -100.16068

Hourly Observations for July 27, 2019

Temp ( °F °C ) Dew Point ( °F °C ) Humidity (%) Winds ( mph kmh ) Pressure ( in mb ) Visibility ( mi km ) Precip ( " mm )
12:15 am 00:15 Clear 71 21.5 63 17.3 77 77 SSE 7 11 29.99 1016 10 16 N/A
12:35 am 00:35 Clear 72 22 62 16.5 71 71 SSE 5 7 29.97 1015 10 16 N/A
12:55 am 00:55 Clear 71 21.6 61 16.2 71 71 SE 3 6 29.99 1016 10 16 N/A
1:15 am 01:15 Clear 71 21.4 61 16 71 71 ESE 3 6 29.99 1016 10 16 N/A
1:35 am 01:35 Clear 71 21.5 60 15.6 69 69 S 6 9 29.99 1016 10 16 N/A
1:55 am 01:55 Clear 70 21 60 15.5 71 71 SSE 5 7 29.99 1016 10 16 N/A
2:15 am 02:15 Clear 70 21 59 15.1 69 69 SE 5 7 29.98 1015 10 16 N/A
2:35 am 02:35 Clear 70 21.1 59 14.9 68 68 SE 3 6 29.99 1016 10 16 N/A
2:55 am 02:55 Clear 70 21 58 14.7 67 67 N N/A 29.98 1015 10 16 N/A
3:15 am 03:15 Clear 68 20 59 14.9 73 73 ENE 3 6 29.99 1016 10 16 N/A
3:35 am 03:35 Clear 71 21.7 58 14.5 64 64 N N/A 29.98 1015 10 16 N/A
3:55 am 03:55 Clear 71 21.6 58 14.4 64 64 SSW 3 6 29.98 1015 10 16 N/A
4:15 am 04:15 Clear 70 21.1 58 14.6 67 67 SW 8 13 29.98 1015 10 16 N/A
4:35 am 04:35 Clear 68 19.8 59 14.9 74 74 N N/A 29.99 1016 10 16 N/A
4:55 am 04:55 Clear 68 20 59 14.8 72 72 N N/A 29.99 1016 10 16 N/A
5:15 am 05:15 Clear 63 17.3 60 15.5 89 89 N N/A 30.02 1016 10 16 N/A
5:35 am 05:35 Clear 64 17.6 60 15.3 86 86 SSE 3 6 30.01 1016 10 16 N/A
5:55 am 05:55 Clear 64 17.6 59 15.1 85 85 S 6 9 30.01 1016 10 16 N/A
6:15 am 06:15 Clear 64 17.6 60 15.5 88 88 SSE 6 9 30.01 1016 10 16 N/A
6:35 am 06:35 Sunny 64 17.8 60 15.3 85 85 SSE 6 9 30.00 1016 10 16 N/A
6:55 am 06:55 Sunny 64 17.7 60 15.4 86 86 SSE 6 9 30.01 1016 10 16 N/A
7:15 am 07:15 Sunny 64 17.7 60 15.5 87 87 SSE 7 11 30.01 1016 10 16 N/A
7:35 am 07:35 Sunny 65 18.4 60 15.7 84 84 SSE 6 9 30.01 1016 10 16 N/A
7:55 am 07:55 Sunny 66 18.9 61 16 83 83 SSE 5 7 30.00 1016 10 16 N/A
8:15 am 08:15 Sunny 69 20.3 61 16.3 78 78 SSE 3 6 30.00 1016 10 16 N/A
8:35 am 08:35 Sunny 69 20.8 62 16.5 77 77 S 6 9 30.00 1016 10 16 N/A
8:55 am 08:55 Sunny 71 21.4 62 16.7 75 75 S 7 11 30.00 1016 10 16 N/A
9:15 am 09:15 Sunny 72 22.1 63 17 73 73 S 7 11 29.99 1016 10 16 N/A
9:35 am 09:35 Sunny 73 23 64 17.7 72 72 S 7 11 29.99 1015 10 16 N/A
9:55 am 09:55 Sunny 74 23.5 64 17.6 70 70 S 7 11 29.98 1015 10 16 N/A
10:15 am 10:15 Sunny 75 23.9 65 18.3 71 71 S 7 11 29.98 1015 10 16 N/A
10:35 am 10:35 Sunny 77 24.8 65 18.5 68 68 S 6 9 29.96 1015 10 16 N/A
10:55 am 10:55 Sunny 78 25.7 66 19.1 67 67 S 6 9 29.96 1015 10 16 N/A
11:15 am 11:15 Sunny 79 26.1 66 18.8 64 64 SSW 5 7 29.96 1015 10 16 N/A
11:35 am 11:35 Sunny 80 26.7 66 19.1 63 63 SSW 3 6 29.96 1014 10 16 N/A
11:55 am 11:55 Sunny 81 27.2 67 19.4 62 62 S 5 7 29.94 1014 10 16 N/A
12:15 pm 12:15 Sunny 82 27.6 68 19.9 63 63 SSW 9 15 29.94 1014 10 16 N/A
12:35 pm 12:35 Sunny 82 28 69 20.3 63 63 SSE 7 11 29.93 1014 10 16 N/A
12:55 pm 12:55 Sunny 83 28.1 69 20.6 64 64 S 8 13 29.93 1014 10 16 N/A
1:15 pm 13:15 Sunny 84 28.7 68 20.2 60 60 SSE 7 11 29.92 1013 10 16 N/A
1:35 pm 13:35 Sunny 83 28.5 69 20.8 63 63 SSE 7 11 29.92 1013 10 16 N/A
1:55 pm 13:55 Sunny 85 29.4 70 20.9 60 60 S 10 17 29.90 1013 10 16 N/A
2:15 pm 14:15 Sunny 85 29.5 70 21.3 61 61 SSE 10 17 29.90 1013 10 16 N/A
2:35 pm 14:35 Sunny 85 29.2 69 20.8 61 61 S 12 19 29.90 1012 10 16 N/A
2:55 pm 14:55 Sunny 85 29.5 70 21.2 61 61 SSE 12 19 29.89 1012 10 16 N/A
3:15 pm 15:15 Sunny 85 29.4 70 21.1 61 61 SE 12 19 29.89 1012 10 16 N/A
3:35 pm 15:35 Sunny 86 29.8 68 20.2 56 56 SSE 10 17 29.89 1012 10 16 N/A
3:55 pm 15:55 Sunny 86 30 69 20.8 58 58 SE 10 17 29.88 1012 10 16 N/A
4:15 pm 16:15 Sunny 86 30 69 20.3 56 56 SSE 12 19 29.88 1012 10 16 N/A
4:35 pm 16:35 Sunny 87 30.5 68 20.2 54 54 SSE 13 20 29.86 1011 10 16 N/A
4:55 pm 16:55 Sunny 87 30.6 67 19.6 52 52 SSE 14 22 29.85 1011 10 16 N/A
5:15 pm 17:15 Sunny 86 29.9 65 18.5 50 50 SSE 12 19 29.86 1011 10 16 N/A
5:35 pm 17:35 Sunny 85 29.6 68 20.1 57 57 SE 12 19 29.85 1011 10 16 N/A
5:55 pm 17:55 Sunny 85 29.3 66 19.1 54 54 SE 9 15 29.85 1011 10 16 N/A
6:15 pm 18:15 Sunny 87 30.4 67 19.6 52 52 SE 9 15 29.84 1010 10 16 N/A
6:35 pm 18:35 Sunny 86 29.9 68 19.9 55 55 ESE 9 15 29.83 1010 10 16 N/A
6:55 pm 18:55 Sunny 86 30 68 19.8 54 54 SE 12 19 29.83 1010 10 16 N/A
7:15 pm 19:15 Sunny 85 29.6 68 20.2 57 57 SE 12 19 29.82 1010 10 16 N/A
7:35 pm 19:35 Sunny 84 29 69 20.5 60 60 SE 8 13 29.84 1010 10 16 N/A
7:55 pm 19:55 Sunny 83 28.6 69 20.8 63 63 SE 9 15 29.83 1010 10 16 N/A
8:15 pm 20:15 Sunny 82 28 70 21 66 66 SE 10 17 29.84 1010 10 16 N/A
8:35 pm 20:35 Sunny 81 27.4 70 21.1 69 69 SE 10 17 29.84 1011 10 16 N/A
8:55 pm 20:55 Sunny 81 27.1 70 20.9 69 69 SE 10 17 29.84 1011 10 16 N/A
9:15 pm 21:15 Clear 79 26.3 69 20.6 71 71 SE 8 13 29.85 1011 10 16 N/A
9:35 pm 21:35 Clear 79 26.1 69 20.5 71 71 SE 9 15 29.85 1011 10 16 N/A
9:55 pm 21:55 Clear 79 26 67 19.7 68 68 SE 9 15 29.86 1011 10 16 N/A
10:15 pm 22:15 Clear 78 25.7 65 18.5 65 65 SSE 13 20 29.86 1011 10 16 N/A
10:35 pm 22:35 Clear 77 25.1 64 17.9 64 64 SSE 12 19 29.89 1012 10 16 N/A
10:55 pm 22:55 Clear 77 25 64 17.5 63 63 SSE 12 19 29.89 1012 10 16 N/A
11:15 pm 23:15 Clear 77 24.9 63 17 62 62 SSE 13 20 29.89 1012 10 16 N/A
11:35 pm 23:35 Clear 77 24.8 62 16.5 60 60 SSE 12 19 29.88 1012 10 16 N/A
11:55 pm 23:55 Clear 76 24.6 61 16.1 59 59 SSE 10 17 29.87 1012 10 16 N/A

Powered by AerisWeather